sat.trackr.live / text

‹ back to catalog

STARLINK-38010

NORAD 69727 · 2026-147Z

PAYLOAD ACTIVE UNKNOWN

§ Identity

Operator
Country
US
Launch date
2026-06-28
Launch site
AFWTR
Launch vehicle
Mass (kg)
RCS (m²)

Purposes: comms

External: N2YO · Heavens-Above · Gunter

§ Orbital elements

Epoch: 2026-09-20T04:00:03.000096Z

Period
91.42 min
Inclination
97.2845°
Eccentricity
0.0001418
Mean motion
15.75232112 rev/d
Perigee alt
343.0 km
Apogee alt
344.9 km
Semi-major
6,722.1 km
B*
-8.4655e-4
RAAN
302.8306°
Arg perigee
86.6683°
Mean anomaly
102.3405°
Rev number
599

§ Raw data

STARLINK-380101 69727U 26147Z   26263.16670139 -.00124801  00000+0 -84655-3 0  99912 69727  97.2845 302.8306 0001418  86.6683 102.3405 15.75232112  5998

JSON: /api/v1/satellites/69727 · /tle

For live sub-satellite position, see the globe view (requires WebGL).

§ Visibility from observer

Set your observer location to see the next 7 days of passes ≥ 10°. The values pass through the URL so the page stays shareable.

No JS? Fill the form by hand. The geolocation button needs JavaScript.